Weather History for Fort Eustis, VA

Change the Weather History Date:

Friday, September 6, 2013

  Actual Average Record
Temperature  
Mean Temperature 72 °F -  
Max Temperature 79 °F 80 °F 89 °F (1996)
Min Temperature 62 °F 66 °F 60 °F (2001)
Cooling Degree Days 6    
Growing Degree Days 22 (Base 50)    
Moisture  
Dew Point 60 °F    
Average Humidity 65    
Maximum Humidity 90    
Minimum Humidity 51    
Precipitation  
Precipitation 0.00 in - - ()
Sea Level Pressure  
Sea Level Pressure 30.13 in    
Wind  
Wind Speed 5 mph (NE)    
Max Wind Speed 12 mph    
Max Gust Speed 17 mph    
Visibility 8 miles    
Events      
Averages and records for this station are not official NWS values.
T = Trace of Precipitation, MM = Missing Value Source: NWS Daily Summary

Daily Weather History Graph

Daily Weather History Graph

Search for Another Location

Airport:

Trip Planner

Search our weather history database for the weather conditions in past years. The results will help you decide how hot, cold, wet, or windy it might be!

Date:

Astronomy

Sep. 06, 2013 Rise Set
Actual Time 6:41 AM EDT 7:27 PM EDT
Civil Twilight 6:14 AM EDT 7:53 PM EDT
Nautical Twilight 5:43 AM EDT 8:24 PM EDT
Astronomical Twilight 5:11 AM EDT 8:56 PM EDT
Moon 7:48 AM EDT (9/6) 7:53 PM EDT (9/6)
Length of Visible Light 13h 38m
Length of Day
12h 45m
New Moon, 1% of the Moon is Illuminated
Sep 6
New Moon
Sep 12
First Quarter
Sep 19
Full
Sep 26
Last Quarter
Oct 4
New

Hourly Weather History & Observations

Time (EDT) Temp. Dew Point Humidity Pressure Visibility Wind Dir Wind Speed Gust Speed Precip Events Conditions
12:58 AM 74.7 °F 64.8 °F 71% 30.08 in 10.0 mi Variable 4.6 mph - N/A   Scattered Clouds
1:58 AM 74.5 °F 58.8 °F 58% 30.10 in 10.0 mi North 6.9 mph - N/A   Mostly Cloudy
2:58 AM 72.9 °F 58.8 °F 61% 30.09 in 3.0 mi NNE 5.8 mph - N/A   Haze
3:03 AM 73.4 °F 59.0 °F 61% 30.08 in 2.0 mi NE 4.6 mph - N/A   Haze
3:18 AM 71.6 °F 59.0 °F 64% 30.09 in 3.0 mi NE 4.6 mph - N/A   Haze
3:23 AM 71.6 °F 60.8 °F 69% 30.09 in 2.5 mi NNE 4.6 mph - N/A   Haze
3:43 AM 71.6 °F 60.8 °F 69% 30.09 in 3.0 mi NE 4.6 mph - N/A   Haze
3:58 AM 71.2 °F 62.4 °F 74% 30.10 in 5.0 mi NE 4.6 mph - N/A   Haze
4:58 AM 71.4 °F 63.0 °F 75% 30.11 in 9.0 mi NE 5.8 mph - N/A   Mostly Cloudy
5:58 AM 70.5 °F 62.1 °F 74% 30.11 in 10.0 mi NE 2.3 mph - N/A   Mostly Cloudy
6:58 AM 69.6 °F 62.1 °F 77% 30.13 in 10.0 mi NNE 3.5 mph - N/A   Clear
7:58 AM 70.9 °F 63.1 °F 76% 30.15 in 10.0 mi NNE 3.5 mph - N/A   Mostly Cloudy
8:58 AM 75.0 °F 61.7 °F 63% 30.17 in 10.0 mi NE 6.9 mph - N/A   Mostly Cloudy
9:58 AM 75.9 °F 62.8 °F 64% 30.19 in 10.0 mi ENE 10.4 mph 17.3 mph N/A   Clear
10:58 AM 75.9 °F 62.6 °F 63% 30.19 in 10.0 mi NE 8.1 mph - N/A   Mostly Cloudy
11:58 AM 77.5 °F 62.8 °F 60% 30.19 in 9.0 mi NE 8.1 mph - N/A   Mostly Cloudy
12:58 PM 77.0 °F 61.0 °F 58% 30.19 in 10.0 mi ENE 9.2 mph - N/A   Mostly Cloudy
1:58 PM 79.2 °F 59.7 °F 51% 30.18 in 10.0 mi NE 8.1 mph - N/A   Scattered Clouds
2:58 PM 78.8 °F 59.2 °F 51% 30.16 in 10.0 mi East 11.5 mph - N/A   Partly Cloudy
3:58 PM 78.4 °F 58.8 °F 51% 30.14 in 10.0 mi East 10.4 mph - N/A   Partly Cloudy
4:58 PM 77.7 °F 58.3 °F 51% 30.13 in 10.0 mi ENE 8.1 mph - N/A   Clear
5:58 PM 76.5 °F 57.4 °F 52% 30.14 in 10.0 mi Variable 6.9 mph - N/A   Clear
6:58 PM 74.3 °F 57.9 °F 57% 30.13 in 10.0 mi East 5.8 mph - N/A   Clear
7:58 PM 71.6 °F 57.2 °F 60% 30.13 in 10.0 mi ESE 2.3 mph - N/A   Clear
8:58 PM 67.1 °F 58.1 °F 73% 30.15 in 10.0 mi ESE 1.2 mph - N/A   Clear
9:58 PM 64.8 °F 59.4 °F 83% 30.15 in 10.0 mi SE 1.2 mph - N/A   Clear
10:58 PM 65.3 °F 58.1 °F 77% 30.15 in 10.0 mi Calm Calm - N/A   Partly Cloudy
11:58 PM 62.8 °F 59.7 °F 90% 30.14 in 10.0 mi Calm Calm - N/A   Clear